Terug naar catalogus

NAVSTAR 18

USA 50

ActiefNavigatieMEO
NORAD 20452·PAYLOAD·🇺🇸 United States

Gelanceerd Jan 24, 1990 vanaf Cape Canaveral Space Force Station

Loading…

Volgende Passages (komende 24 uur)

TLE

VersSource: Space-Track

Epoch: Sep 14, 2026, 02:04 UTC

1 20452U 90008A   26257.08615356  .00000007  00000-0  00000-0 0  9993
2 20452  54.8803 130.5346 0013244 283.8120 213.0821  1.89597855258114

Volg NAVSTAR 18 in realtime met AllMySat

Download on the App Store